Flag for Iceland Weather past 2 weeks in Reykjavik, Iceland

Now
28 °F

Light snow. Broken clouds.


Feels Like: 13 °F
Forecast: N/A
Wind: 30 mph from North

Location: Reykjavik Airport

Current Time: Apr 26, 2015 at 4:14:38 PM

Latest Report: Apr 26, 2015 at 4:00 PM


Visibility: N/A

Pressure: 30.21 "Hg

Humidity: 69%

Dew point: 19 °F

Location of ReykjavikLocation

Historic Weather in Reykjavik — Graph

°F

Reykjavik temperature yesterday

Maximum temperature yesterday: 32 °F (at 1:00 PM)
Minimum temperature yesterday: 21 °F (at 3:00 AM)
Average temperature yesterday: 27 °F

Past Weeks' High & Low Weather Summary

 TemperatureHumidityPressure
High48 °F (Apr 19, 1:00 PM)93% (Apr 12, 5:00 PM)30.33 "Hg (Apr 12, 5:00 PM)
Low21 °F (Apr 12, 7:00 AM)27% (Apr 25, 5:00 PM)28.85 "Hg (Apr 13, 4:00 PM)
Average38 °F71%29.87 "Hg
* Reported Apr 11 2:00 PM — Apr 26 2:00 PM, Reykjavik, Weather by CustomWeather, © 2015

Note: Actual official high and low records may vary slightly from our data, if they occured in-between our weather recording intervals... More about our weather records

Advertising

Reykjavik weather history for previous 24 hours

 ConditionsComfort  
Time TempWeatherWind HumidityBarometerVisibility
2:00 PM
Sun, Apr 26
30 °FSnow flurries. Broken clouds.26 mph64%30.24 "HgN/A
1:00 PM28 °FSnow flurries. Broken clouds.33 mph64%30.24 "HgN/A
12:00 PM27 °FSnow flurries. Broken clouds.23 mph74%30.24 "Hg4 mi
11:00 AM28 °FSnow flurries. Broken clouds.18 mph64%30.24 "HgN/A
10:00 AM27 °FScattered showers. Scattered clouds.20 mph59%30.27 "HgN/A
9:00 AM27 °FScattered showers. Scattered clouds.17 mph59%30.30 "HgN/A
8:00 AM25 °FSnow flurries. Scattered clouds.17 mph63%30.30 "HgN/A
7:00 AM23 °FLight freezing rain. Partly sunny.16 mph63%30.33 "HgN/A
6:00 AM23 °FSnow flurries. Scattered clouds.20 mph63%30.33 "HgN/A
5:00 AM23 °FPassing clouds.24 mph63%30.33 "HgN/A
4:00 AM25 °FPassing clouds.20 mph54%30.33 "HgN/A
3:00 AM25 °FPassing clouds.18 mph63%30.33 "HgN/A
2:00 AM25 °FPassing clouds.10 mph59%30.33 "HgN/A
1:00 AM27 °FClear.20 mph59%30.33 "Hg10 mi
12:00 AM27 °FClear.17 mph59%30.30 "Hg10 mi
11:00 PM
Sat, Apr 25
27 °FPassing clouds.15 mph50%30.30 "HgN/A
10:00 PM28 °FPassing clouds.9 mph40%30.30 "HgN/A
9:00 PM28 °FPassing clouds.13 mph34%30.27 "HgN/A
8:00 PM28 °FScattered showers. Passing clouds.14 mph31%30.27 "HgN/A
7:00 PM30 °FScattered showers. Scattered clouds.14 mph34%30.24 "HgN/A
6:00 PM30 °FScattered showers. Scattered clouds.14 mph37%30.21 "HgN/A
5:00 PM32 °FScattered showers. Scattered clouds.13 mph27%30.21 "HgN/A
4:00 PM32 °FScattered clouds.13 mph32%30.18 "HgN/A
Weather by CustomWeather, © 2015

See weather overviewHow to use our weather pages